Home   Weather   Thane   Past weeks

Flag for India Past Weather in Thane, Maharashtra, India — Yesterday and Last 2 Weeks

Now
73 °F

Clear.


Feels Like: 77 °F
Forecast: 65 / 90 °F
Wind: 6 mph from Northeast

Location: Mumbai / Santacruz

Current Time: Jan 18, 2017 at 1:08:18 am

Latest Report: Jan 18, 2017 at 12:00 am


Visibility: 2 mi

Pressure: 29.95 "Hg

Humidity: 53%

Dew Point: 55 °F

Location of ThaneLocation

Past Weather in Thane — Graph

°F

Thane Temperature Yesterday

Maximum temperature yesterday: 86 °F (at 12:30 pm)
Minimum temperature yesterday: 72 °F (at 4:00 am)
Average temperature yesterday: 77 °F

High & Low Weather Summary for the Past Weeks

 TemperatureHumidityPressure
High91 °F (Jan 15, 2:00 pm)83% (Jan 8, 3:00 am)30.04 "Hg (Jan 8, 3:00 am)
Low63 °F (Jan 11, 7:30 am)21% (Jan 4, 1:00 pm)29.77 "Hg (Jan 8, 3:30 pm)
Average77 °F55%29.91 "Hg
* Reported Jan 3 2:00 am — Jan 17 11:30 pm, Thane, Weather by CustomWeather, © 2017

Note: Actual official high and low records may vary slightly from our data, if they occured in-between our weather recording intervals... More about our weather records

Advertising

Thane Weather History for the Previous 24 Hours

Scroll right to see more
 ConditionsComfort  
Time TempWeatherWind HumidityBarometerVisibility
11:30 pm
Tue, Jan 17
73 °FClear.5 mph53%29.98 "Hg1 mi
11:00 pm73 °FClear.6 mph53%29.98 "Hg1 mi
10:30 pm75 °FClear.7 mph50%29.98 "Hg1 mi
10:00 pm77 °FClear.6 mph47%29.98 "Hg1 mi
9:30 pm75 °FClear.7 mph50%29.98 "Hg1 mi
9:00 pm75 °FClear.7 mph54%29.98 "Hg1 mi
8:30 pm75 °FClear.8 mph54%29.95 "Hg1 mi
8:00 pm77 °FClear.7 mph54%29.95 "Hg1 mi
7:30 pm77 °FClear.6 mph57%29.92 "Hg1 mi
7:00 pm77 °FClear.6 mph57%29.92 "Hg2 mi
6:30 pm77 °FClear.7 mph54%29.92 "Hg2 mi
6:00 pm81 °FClear.7 mph48%29.89 "Hg2 mi
5:30 pm81 °FClear.7 mph48%29.89 "Hg2 mi
5:00 pm81 °FClear.7 mph48%29.89 "Hg2 mi
4:30 pm82 °FClear.8 mph45%29.89 "Hg2 mi
4:00 pm82 °FClear.9 mph45%29.89 "Hg2 mi
3:30 pm82 °FPassing clouds.10 mph45%29.89 "Hg2 mi
3:00 pm84 °FPassing clouds.10 mph40%29.89 "Hg2 mi
2:30 pm84 °FPassing clouds.9 mph43%29.89 "Hg2 mi
2:00 pm84 °FPassing clouds.9 mph43%29.92 "Hg2 mi
1:30 pm86 °FScattered clouds.10 mph40%29.92 "Hg2 mi
1:00 pm86 °FScattered clouds.5 mph35%29.95 "Hg1 mi
12:30 pm86 °FScattered clouds.3 mph35%29.98 "Hg1 mi
12:00 pm82 °FScattered clouds.6 mph37%29.98 "Hg1 mi
11:30 am82 °FScattered clouds.7 mph40%30.01 "Hg1 mi
11:00 am79 °FScattered clouds.6 mph45%30.01 "Hg1 mi
10:30 am79 °FScattered clouds.5 mph45%30.04 "Hg1 mi
10:00 am77 °FPassing clouds.3 mph51%30.04 "Hg1 mi
9:30 am75 °FHaze.5 mph57%30.04 "Hg1 mi
9:00 am73 °FHaze.5 mph61%30.01 "Hg1 mi
8:30 am72 °FHaze.3 mph65%30.01 "Hg1 mi
8:00 am72 °FHaze.3 mph65%29.98 "Hg1 mi
7:30 am72 °FHaze.3 mph65%29.98 "Hg1 mi
7:00 am72 °FHaze.3 mph65%29.95 "Hg1 mi
6:30 am72 °FHaze.3 mph69%29.95 "Hg1 mi
6:00 am72 °FHaze.No wind69%29.95 "Hg1 mi
5:30 am72 °FHaze.No wind73%29.92 "Hg1 mi
5:00 am72 °FHaze.No wind73%29.92 "Hg1 mi
4:30 am72 °FHaze.No wind73%29.92 "Hg1 mi
4:00 am72 °FHaze.No wind73%29.92 "Hg1 mi
3:30 am73 °FHaze.No wind69%29.92 "Hg1 mi
3:00 am73 °FHaze.5 mph69%29.92 "Hg1 mi
2:30 am73 °FHaze.No wind69%29.95 "Hg1 mi
2:00 am73 °FHaze.5 mph69%29.95 "Hg1 mi
1:30 am73 °FHaze.3 mph69%29.95 "Hg1 mi
1:00 am75 °FHaze.5 mph65%29.95 "Hg1 mi
Weather by CustomWeather, © 2017

See weather overviewHow to use our weather pages